Calgary Springbank,

10:11 AM MDT on April 21, 2018 (GMT -0600)
Calgary Springbank

Weather History for CYBW - February, 2014

Change the Weather History Date:

Thursday, February 20, 2014

  Actual Average Record
Temperature  
Mean Temperature 24 °F -  
Max Temperature 33 °F 32 °F 48 °F (1998)
Min Temperature 14 °F 11 °F -14 °F (2018)
Degree Days  
Heating Degree Days 42    
Moisture  
Dew Point 8 °F    
Average Humidity 52    
Maximum Humidity 63    
Minimum Humidity 38    
Precipitation  
Precipitation 0.00 in - - ()
Sea Level Pressure  
Sea Level Pressure 29.81 in    
Wind  
Wind Speed 8 mph ()    
Max Wind Speed 17 mph    
Max Gust Speed -    
Visibility 15.6 miles    
Events      
Averages and records for this station are not official NWS values.
T = Trace of Precipitation, MM = Missing Value Source: Averaged Metar Reports

Daily Weather History Graph

Daily Weather History Graph

Search for Another Location

Airport or City:

Astronomy

Feb. 20, 2014 Rise Set
Actual Time 7:40 AM MST 6:02 PM MST
Civil Twilight 7:06 AM MST 6:36 PM MST
Nautical Twilight 6:28 AM MST 7:15 PM MST
Astronomical Twilight 5:50 AM MST 7:53 PM MST
Moon No Moon Rise 9:46 AM MST (2/20)
Length of Visible Light 11h 29m
Length of Day
10h 22m
Waning Gibbous, 70% of the Moon is Illuminated
Feb 20
Waning Gibbous
Feb 22
Last Quarter
Mar 1
New
Mar 8
First Quarter
Mar 16
Full

Hourly Weather History & Observations

Time (MST) Temp. Windchill Dew Point Humidity Pressure Visibility Wind Dir Wind Speed Gust Speed Precip Events Conditions
5:00 AM 14.0 °F 2.9 °F 1.4 °F 57% 29.93 in 15.0 mi SSW 8.1 mph - N/A   Overcast
6:00 AM 15.8 °F 5.1 °F 1.4 °F 53% 29.89 in 15.0 mi South 8.1 mph - N/A   Mostly Cloudy
7:00 AM 15.8 °F 5.1 °F 3.2 °F 58% 29.88 in 20.0 mi South 8.1 mph - N/A   Mostly Cloudy
8:00 AM 15.8 °F 5.1 °F 3.2 °F 58% 29.88 in 30.0 mi SSW 8.1 mph - N/A   Mostly Cloudy
9:00 AM 17.6 °F 9.3 °F 5.0 °F 58% 29.86 in 30.0 mi South 5.8 mph - N/A   Overcast
9:43 AM 23.0 °F 11.1 °F 8.6 °F 54% 29.83 in 30.0 mi West 12.7 mph - N/A   Mostly Cloudy
10:00 AM 23.0 °F 13.9 °F 8.6 °F 54% 29.82 in 30.0 mi WSW 8.1 mph - N/A   Mostly Cloudy
11:00 AM 23.0 °F 12.4 °F 10.4 °F 59% 29.80 in 30.0 mi West 10.4 mph - N/A   Mostly Cloudy
12:00 PM 24.8 °F 17.9 °F 12.2 °F 59% 29.77 in 30.0 mi West 5.8 mph - N/A   Mostly Cloudy
1:00 PM 28.4 °F 22.2 °F 10.4 °F 47% 29.76 in 30.0 mi WNW 5.8 mph - N/A   Mostly Cloudy
2:00 PM 32.0 °F 23.0 °F 10.4 °F 41% 29.72 in 30.0 mi WNW 11.5 mph - N/A   Mostly Cloudy
3:00 PM 33.8 °F 24.8 °F 10.4 °F 38% 29.71 in 30.0 mi NW 12.7 mph - N/A   Mostly Cloudy
4:00 PM 32.0 °F 23.6 °F 12.2 °F 44% 29.72 in 25.0 mi WNW 10.4 mph - N/A   Mostly Cloudy
5:00 PM 32.0 °F 22.5 °F 8.6 °F 38% 29.75 in 30.0 mi North 12.7 mph - N/A   Mostly Cloudy
6:00 PM 28.4 °F 20.4 °F 6.8 °F 40% 29.78 in 30.0 mi NNW 8.1 mph - N/A   Mostly Cloudy
7:00 PM 23.0 °F 15.8 °F 6.8 °F 50% 29.81 in 15.0 mi NW 5.8 mph - N/A   Mostly Cloudy
8:00 PM 23.0 °F 13.1 °F 8.6 °F 54% 29.82 in 15.0 mi West 9.2 mph - N/A   Mostly Cloudy
8:16 PM 24.8 °F 11.5 °F 8.6 °F 50% 29.82 in 15.0 mi West 17.3 mph - N/A   Mostly Cloudy
9:00 PM 23.0 °F 10.6 °F 10.4 °F 59% 29.82 in 15.0 mi West 13.8 mph - N/A   Mostly Cloudy
9:50 PM 23.0 °F 11.7 °F 10.4 °F 59% 29.83 in 15.0 mi West 11.5 mph - N/A   Mostly Cloudy
10:00 PM 21.2 °F 11.7 °F 10.4 °F 63% 29.83 in 15.0 mi West 8.1 mph - N/A   Mostly Cloudy